Location: Ridgway Nature & Science Center
(38.1460°N, 107.7553°W)
Time: 11:08:22
(UTC-06:00)

Hubble Space Telescope - Pass Details

Date: 08 August 2022
Orbit: 531 x 535 km, 28.5° (Epoch: 27 September)

Event Time Altitude Azimuth Distance (km) Brightness Sun altitude
Rises 21:26:11 0° 242° (WSW) 2,661 4.7 -13.7°
Reaches altitude 10° 21:28:51 10° 226° (SW) 1,772 3.6 -14.1°
Maximum altitude 21:31:56 21° 177° (S) 1,239 2.3 -14.6°
Enters shadow 21:32:37 20° 162° (SSE) 1,271 2.2 -14.7°
